SL-16 DEB, 18527

Orbit data source: Space-Track

SL-16 DEB, 18527 is space debris in LEO originally from a launch on Wed, 18 Mar 1987 UTC launched from the Tyuratam Missile And Space Complex (TTMTR). Debris objects in space refer to the collection of defunct objects orbiting the Earth. Examples of debris include non-operational satellites, rocket bodies, and fragments generated from explosions, collisions, or faulty payload assembly.

Loading next visibility...
SL-16 DEB details
Identifier
18527, 1987-027E
Orbit
LEO
Last TLE update11 hours ago
Origin
Flag of CISUNKS (CIS)
ManufacturerYuzhnoe
MissionSpacecraft
Bus & MotorSEP MOTOR COVER, Unknown motor
Mass~0 kg wet, ~1 kg dry
Launch date (UTC)
1987-03-18 (38 years ago)
Launch vehicleUnknown
Launch site
Tyuratam Missile And Space Complex (TTMTR)
Object type
Payload
Rocket body
Debris
Shape & HBRUnknown
Radar Cross SectionSmall (<0.1 m²)

Expand to show TLE details & history

TLE from 11 hours ago
0 SL-16 DEB
1 18527U 87027E   24361.18134070  .00000276  00000-0  28830-3 0  9996
2 18527  70.9973 262.5353 0196352 314.6380  43.8852 13.75612729895204
Epoch: 2024-12-26T04:21Z
Definitive object data (Epoch: 2024-12-26T04:21:07.836Z)
Latitude
Longitude102.08823°
Altitude879.102 km
Speed7.465 km/s
True Right ascension17h 30m 08s
True Declination0° 00' 00"
Sunlit
Object was in daylight at TLE epoch
Visualization TLE readout
Latitude-2.47388°
Longitude-77.99569°
Altitude1,076.272 km
Speed7.267 km/s
Apparent Right ascension04h 33m 01s
Apparent Declination-20° 27' 54"
Sunlit
Object is in full shadow
Visualization observer readout
Local Sidereal Time15:05:27
Azimuth309.665° NW
Elevation-63.013°
Doppler factor1
Orbital elements
Apogee altitude1,121.88 km
Perigee altitude833.023 km
Semi-major axis7,355.589 km
Eccentricity0.0196352
Inclination70.9973°
RAAN262.5353°
Arg. of periapsis314.638°
True anomaly45.47282°
Mean anomaly43.8852°
Eccentric anomaly44.6762°
Mean motion3.44046 °/min
BSTAR0.0002883
Orbital period104.64 mins
Loading maneuver chart data...
Loading historical data...
Loading historical data...
Loading historical data...
Loading historical data...
Loading historical data...
Loading historical data...
Loading historical data...

SL-16 DEB Visibility forecast

Observer location: undefined°, undefined

Span
Click to sort rows by Start time (UTC) header in descending order
Start Az.
Max El. time (UTC)
Max El. Az.
Max El.
End time (UTC)
End Az.
11 mins2024-12-26 18:25:23.984Z172.998° S2024-12-26 18:30:23.984Z103.214° ESE35.457°2024-12-26 18:36:23.984Z34.991° NE
9 mins2024-12-26 20:13:23.984Z251.886° W2024-12-26 20:17:23.984Z301.556° NW26.822°2024-12-26 20:22:23.984Z0.668° NNE
10 mins2024-12-27 03:36:23.984Z3.491° NNE2024-12-27 03:40:23.984Z48.955° ENE28.217°2024-12-27 03:46:23.984Z114.486° SE
11 mins2024-12-27 05:23:23.984Z320.58° NNW2024-12-27 05:28:23.984Z248.194° W37.78°2024-12-27 05:34:23.984Z182.297° SSW
|